Year,Month,Day,Hour,Minute,Value (Times are PST for windspeed in km/hr)
2015,06,15,00,00,5.20
2015,06,15,00,01,5.70
2015,06,15,00,02,6.90
2015,06,15,00,03,10.20
2015,06,15,00,04,8.10
2015,06,15,00,05,7.60
2015,06,15,00,06,8.50
2015,06,15,00,07,9.10
2015,06,15,00,08,9.80
2015,06,15,00,09,10.50
2015,06,15,00,10,7.10
2015,06,15,00,11,8.90
2015,06,15,00,12,8.80
2015,06,15,00,13,7.70
2015,06,15,00,14,8.40
2015,06,15,00,15,6.90
2015,06,15,00,16,9.10
2015,06,15,00,17,9.00
2015,06,15,00,18,8.60
2015,06,15,00,19,9.00
2015,06,15,00,20,8.70
2015,06,15,00,21,8.80
2015,06,15,00,22,7.80
2015,06,15,00,23,7.20
2015,06,15,00,24,6.70
2015,06,15,00,25,6.80
2015,06,15,00,26,6.00
2015,06,15,00,27,8.90
2015,06,15,00,28,6.70
2015,06,15,00,29,8.30
2015,06,15,00,30,8.60
2015,06,15,00,31,8.20
2015,06,15,00,32,8.50
2015,06,15,00,33,8.30
2015,06,15,00,34,9.30
2015,06,15,00,35,7.50
2015,06,15,00,36,7.50
2015,06,15,00,37,7.60
2015,06,15,00,38,6.50
2015,06,15,00,39,6.70
2015,06,15,00,40,7.00
2015,06,15,00,41,9.20
2015,06,15,00,42,8.00
2015,06,15,00,43,11.40
2015,06,15,00,44,9.40
2015,06,15,00,45,10.50
2015,06,15,00,46,9.80
2015,06,15,00,47,8.60
2015,06,15,00,48,8.50
2015,06,15,00,49,6.00
2015,06,15,00,50,6.00
2015,06,15,00,51,5.90
2015,06,15,00,52,6.60
2015,06,15,00,53,6.00
2015,06,15,00,54,7.90
2015,06,15,00,55,7.50
2015,06,15,00,56,7.60
2015,06,15,00,57,6.80
2015,06,15,00,58,9.10
2015,06,15,00,59,8.90
2015,06,15,01,00,5.40
2015,06,15,01,01,8.70
2015,06,15,01,02,6.60
2015,06,15,01,03,5.60
2015,06,15,01,04,6.40
2015,06,15,01,05,7.20
2015,06,15,01,06,6.90
2015,06,15,01,07,6.70
2015,06,15,01,08,9.20
2015,06,15,01,09,10.10
2015,06,15,01,10,11.20
2015,06,15,01,11,10.30
2015,06,15,01,12,9.10
2015,06,15,01,13,8.00
2015,06,15,01,14,6.70
2015,06,15,01,15,5.60
2015,06,15,01,16,6.20
2015,06,15,01,17,5.20
2015,06,15,01,18,5.10
2015,06,15,01,19,5.40
2015,06,15,01,20,5.50
2015,06,15,01,21,5.50
2015,06,15,01,22,4.90
2015,06,15,01,23,4.10
2015,06,15,01,24,4.80
2015,06,15,01,25,4.50
2015,06,15,01,26,3.40
2015,06,15,01,27,4.40
2015,06,15,01,28,3.30
2015,06,15,01,29,3.00
2015,06,15,01,30,2.60
2015,06,15,01,31,3.00
2015,06,15,01,32,3.30
2015,06,15,01,33,3.50
2015,06,15,01,34,3.70
2015,06,15,01,35,3.70
2015,06,15,01,36,4.00
2015,06,15,01,37,3.90
2015,06,15,01,38,3.90
2015,06,15,01,39,4.00
2015,06,15,01,40,4.60
2015,06,15,01,41,4.20
2015,06,15,01,42,4.60
2015,06,15,01,43,4.50
2015,06,15,01,44,4.20
2015,06,15,01,45,4.40
2015,06,15,01,46,4.20
2015,06,15,01,47,4.30
2015,06,15,01,48,4.60
2015,06,15,01,49,5.10
2015,06,15,01,50,4.60
2015,06,15,01,51,6.00
2015,06,15,01,52,6.00
2015,06,15,01,53,5.90
2015,06,15,01,54,5.10
2015,06,15,01,55,6.70
2015,06,15,01,56,6.70
2015,06,15,01,57,7.00
2015,06,15,01,58,7.60
2015,06,15,01,59,6.90
2015,06,15,02,00,6.70
2015,06,15,02,01,7.60
2015,06,15,02,02,5.50
2015,06,15,02,03,6.40
2015,06,15,02,04,5.70
2015,06,15,02,05,8.60
2015,06,15,02,06,7.40
2015,06,15,02,07,8.80
2015,06,15,02,08,9.60
2015,06,15,02,09,8.80
2015,06,15,02,10,8.20
2015,06,15,02,11,8.00
2015,06,15,02,12,7.30
2015,06,15,02,13,5.60
2015,06,15,02,14,6.70
2015,06,15,02,15,6.80
2015,06,15,02,16,9.10
2015,06,15,02,17,7.60
2015,06,15,02,18,7.90
2015,06,15,02,19,8.80
2015,06,15,02,20,6.70
2015,06,15,02,21,5.80
2015,06,15,02,22,5.70
2015,06,15,02,23,5.00
2015,06,15,02,24,5.40
2015,06,15,02,25,5.90
2015,06,15,02,26,7.40
2015,06,15,02,27,7.20
2015,06,15,02,28,7.20
2015,06,15,02,29,6.40
2015,06,15,02,30,7.40
2015,06,15,02,31,5.40
2015,06,15,02,32,5.20
2015,06,15,02,33,6.50
2015,06,15,02,34,7.30
2015,06,15,02,35,6.40
2015,06,15,02,36,6.60
2015,06,15,02,37,6.90
2015,06,15,02,38,8.30
2015,06,15,02,39,9.50
2015,06,15,02,40,9.00
2015,06,15,02,41,10.10
2015,06,15,02,42,9.80
2015,06,15,02,43,7.70
2015,06,15,02,44,6.00
2015,06,15,02,45,5.70
2015,06,15,02,46,6.60
2015,06,15,02,47,5.60
2015,06,15,02,48,7.00
2015,06,15,02,49,6.50
2015,06,15,02,50,6.00
2015,06,15,02,51,6.00
2015,06,15,02,52,8.80
2015,06,15,02,53,8.70
2015,06,15,02,54,9.70
2015,06,15,02,55,9.30
2015,06,15,02,56,10.70
2015,06,15,02,57,10.30
2015,06,15,02,58,8.30
2015,06,15,02,59,9.10
2015,06,15,03,00,9.60
2015,06,15,03,01,9.60
2015,06,15,03,02,9.60
2015,06,15,03,03,9.60
2015,06,15,03,04,9.40
2015,06,15,03,05,6.00
2015,06,15,03,06,5.00
2015,06,15,03,07,4.60
2015,06,15,03,08,5.20
2015,06,15,03,09,6.10
2015,06,15,03,10,4.60
2015,06,15,03,11,4.10
2015,06,15,03,12,4.90
2015,06,15,03,13,5.60
2015,06,15,03,14,6.10
2015,06,15,03,15,6.10
2015,06,15,03,16,6.40
2015,06,15,03,17,6.40
2015,06,15,03,18,5.90
2015,06,15,03,19,5.80
2015,06,15,03,20,6.60
2015,06,15,03,21,9.10
2015,06,15,03,22,6.80
2015,06,15,03,23,9.50
2015,06,15,03,24,9.60
2015,06,15,03,25,10.40
2015,06,15,03,26,10.40
2015,06,15,03,27,12.00
2015,06,15,03,28,10.30
2015,06,15,03,29,10.60
2015,06,15,03,30,10.40
2015,06,15,03,31,11.40
2015,06,15,03,32,11.30
2015,06,15,03,33,8.80
2015,06,15,03,34,8.40
2015,06,15,03,35,9.40
2015,06,15,03,36,8.20
2015,06,15,03,37,7.90
2015,06,15,03,38,7.60
2015,06,15,03,39,8.30
2015,06,15,03,40,6.10
2015,06,15,03,41,4.80
2015,06,15,03,42,4.80
2015,06,15,03,43,6.70
2015,06,15,03,44,7.20
2015,06,15,03,45,7.00
2015,06,15,03,46,9.90
2015,06,15,03,47,10.60
2015,06,15,03,48,8.00
2015,06,15,03,49,10.20
2015,06,15,03,50,10.40
2015,06,15,03,51,10.00
2015,06,15,03,52,6.70
2015,06,15,03,53,4.80
2015,06,15,03,54,4.60
2015,06,15,03,55,5.20
2015,06,15,03,56,4.80
2015,06,15,03,57,6.40
2015,06,15,03,58,7.00
2015,06,15,03,59,5.80
2015,06,15,04,00,6.00
2015,06,15,04,01,5.70
2015,06,15,04,02,6.60
2015,06,15,04,03,5.50
2015,06,15,04,04,5.50
2015,06,15,04,05,3.70
2015,06,15,04,06,4.50
2015,06,15,04,07,4.00
2015,06,15,04,08,3.90
2015,06,15,04,09,4.80
2015,06,15,04,10,5.90
2015,06,15,04,11,5.20
2015,06,15,04,12,5.70
2015,06,15,04,13,6.00
2015,06,15,04,14,4.90
2015,06,15,04,15,5.10
2015,06,15,04,16,5.10
2015,06,15,04,17,4.90
2015,06,15,04,18,6.50
2015,06,15,04,19,5.80
2015,06,15,04,20,5.20
2015,06,15,04,21,5.30
2015,06,15,04,22,4.60
2015,06,15,04,23,4.00
2015,06,15,04,24,5.10
2015,06,15,04,25,5.10
2015,06,15,04,26,5.80
2015,06,15,04,27,5.80
2015,06,15,04,28,5.60
2015,06,15,04,29,5.90
2015,06,15,04,30,5.10
2015,06,15,04,31,6.40
2015,06,15,04,32,5.50
2015,06,15,04,33,5.20
2015,06,15,04,34,4.20
2015,06,15,04,35,5.20
2015,06,15,04,36,4.30
2015,06,15,04,37,6.20
2015,06,15,04,38,6.40
2015,06,15,04,39,5.10
2015,06,15,04,40,6.50
2015,06,15,04,41,7.40
2015,06,15,04,42,6.40
2015,06,15,04,43,5.80
2015,06,15,04,44,6.90
2015,06,15,04,45,7.80
2015,06,15,04,46,8.20
2015,06,15,04,47,6.40
2015,06,15,04,48,5.90
2015,06,15,04,49,7.30
2015,06,15,04,50,7.10
2015,06,15,04,51,8.40
2015,06,15,04,52,8.90
2015,06,15,04,53,9.80
2015,06,15,04,54,8.80
2015,06,15,04,55,8.60
2015,06,15,04,56,9.40
2015,06,15,04,57,8.30
2015,06,15,04,58,12.20
2015,06,15,04,59,10.70
2015,06,15,05,00,8.40
2015,06,15,05,01,9.20
2015,06,15,05,02,6.70
2015,06,15,05,03,10.40
2015,06,15,05,04,9.00
2015,06,15,05,05,7.90
2015,06,15,05,06,9.50
2015,06,15,05,07,11.00
2015,06,15,05,08,10.90
2015,06,15,05,09,10.30
2015,06,15,05,10,10.60
2015,06,15,05,11,9.10
2015,06,15,05,12,10.80
2015,06,15,05,13,11.00
2015,06,15,05,14,10.60
2015,06,15,05,15,12.00
2015,06,15,05,16,10.70
2015,06,15,05,17,11.90
2015,06,15,05,18,9.80
2015,06,15,05,19,11.50
2015,06,15,05,20,11.20
2015,06,15,05,21,10.40
2015,06,15,05,22,8.20
2015,06,15,05,23,7.90
2015,06,15,05,24,9.50
2015,06,15,05,25,9.80
2015,06,15,05,26,12.80
2015,06,15,05,27,13.40
2015,06,15,05,28,13.20
2015,06,15,05,29,12.90
2015,06,15,05,30,13.60
2015,06,15,05,31,11.20
2015,06,15,05,32,12.30
2015,06,15,05,33,12.90
2015,06,15,05,34,13.90
2015,06,15,05,35,13.10
2015,06,15,05,36,15.10
2015,06,15,05,37,14.00
2015,06,15,05,38,15.10
2015,06,15,05,39,13.50
2015,06,15,05,40,13.50
2015,06,15,05,41,15.00
2015,06,15,05,42,14.20
2015,06,15,05,43,14.00
2015,06,15,05,44,10.10
2015,06,15,05,45,12.00
2015,06,15,05,46,10.00
2015,06,15,05,47,7.50
2015,06,15,05,48,11.30
2015,06,15,05,49,12.00
2015,06,15,05,50,12.80
2015,06,15,05,51,12.40
2015,06,15,05,52,11.30
2015,06,15,05,53,11.00
2015,06,15,05,54,10.00
2015,06,15,05,55,12.10
2015,06,15,05,56,14.00
2015,06,15,05,57,13.40
2015,06,15,05,58,13.10
2015,06,15,05,59,11.10
2015,06,15,06,00,7.90
2015,06,15,06,01,7.30
2015,06,15,06,02,7.70
2015,06,15,06,03,7.20
2015,06,15,06,04,7.80
2015,06,15,06,05,12.00
2015,06,15,06,06,12.30
2015,06,15,06,07,12.30
2015,06,15,06,08,14.10
2015,06,15,06,09,12.90
2015,06,15,06,10,13.10
2015,06,15,06,11,14.10
2015,06,15,06,12,12.30
2015,06,15,06,13,13.40
2015,06,15,06,14,13.70
2015,06,15,06,15,14.10
2015,06,15,06,16,12.30
2015,06,15,06,17,10.60
2015,06,15,06,18,9.50
2015,06,15,06,19,10.00
2015,06,15,06,20,11.90
2015,06,15,06,21,11.30
2015,06,15,06,22,7.60
2015,06,15,06,23,6.80
2015,06,15,06,24,8.00
2015,06,15,06,25,12.10
2015,06,15,06,26,12.30
2015,06,15,06,27,10.60
2015,06,15,06,28,10.20
2015,06,15,06,29,10.90
2015,06,15,06,30,8.00
2015,06,15,06,31,9.20
2015,06,15,06,32,7.60
2015,06,15,06,33,8.20
2015,06,15,06,34,6.50
2015,06,15,06,35,7.40
2015,06,15,06,36,7.10
2015,06,15,06,37,8.10
2015,06,15,06,38,6.50
2015,06,15,06,39,9.40
2015,06,15,06,40,8.50
2015,06,15,06,41,8.90
2015,06,15,06,42,8.90
2015,06,15,06,43,8.50
2015,06,15,06,44,7.20
2015,06,15,06,45,9.00
2015,06,15,06,46,11.20
2015,06,15,06,47,13.20
2015,06,15,06,48,12.60
2015,06,15,06,49,13.10
2015,06,15,06,50,13.20
2015,06,15,06,51,14.00
2015,06,15,06,52,14.90
2015,06,15,06,53,11.70
2015,06,15,06,54,11.90
2015,06,15,06,55,14.00
2015,06,15,06,56,11.60
2015,06,15,06,57,12.90
2015,06,15,06,58,14.90
2015,06,15,06,59,13.80
2015,06,15,07,00,14.40
2015,06,15,07,01,15.30
2015,06,15,07,02,11.30
2015,06,15,07,03,13.40
2015,06,15,07,04,16.00
2015,06,15,07,05,11.70
2015,06,15,07,06,12.20
2015,06,15,07,07,13.90
2015,06,15,07,08,12.30
2015,06,15,07,09,9.80
2015,06,15,07,10,13.10
2015,06,15,07,11,11.50
2015,06,15,07,12,11.20
2015,06,15,07,13,13.40
2015,06,15,07,14,14.40
2015,06,15,07,15,11.20
2015,06,15,07,16,6.50
2015,06,15,07,17,7.90
2015,06,15,07,18,8.30
2015,06,15,07,19,8.70
2015,06,15,07,20,5.00
2015,06,15,07,21,7.50
2015,06,15,07,22,12.10
2015,06,15,07,23,11.30
2015,06,15,07,24,11.10
2015,06,15,07,25,6.30
2015,06,15,07,26,10.60
2015,06,15,07,27,12.70
2015,06,15,07,28,9.00
2015,06,15,07,29,6.90
2015,06,15,07,30,10.20
2015,06,15,07,31,13.90
2015,06,15,07,32,11.50
2015,06,15,07,33,11.00
2015,06,15,07,34,9.90
2015,06,15,07,35,10.90
2015,06,15,07,36,7.60
2015,06,15,07,37,7.80
2015,06,15,07,38,10.90
2015,06,15,07,39,11.60
2015,06,15,07,40,11.60
2015,06,15,07,41,10.00
2015,06,15,07,42,8.30
2015,06,15,07,43,13.70
2015,06,15,07,44,12.90
2015,06,15,07,45,11.20
2015,06,15,07,46,12.40
2015,06,15,07,47,11.40
2015,06,15,07,48,10.90
2015,06,15,07,49,11.80
2015,06,15,07,50,9.40
2015,06,15,07,51,5.20
2015,06,15,07,52,6.70
2015,06,15,07,53,3.90
2015,06,15,07,54,5.50
2015,06,15,07,55,7.20
2015,06,15,07,56,8.90
2015,06,15,07,57,7.20
2015,06,15,07,58,7.20
2015,06,15,07,59,7.20
2015,06,15,08,00,8.80
2015,06,15,08,01,9.70
2015,06,15,08,02,7.60
2015,06,15,08,03,5.90
2015,06,15,08,04,7.40
2015,06,15,08,05,7.10
2015,06,15,08,06,7.20
2015,06,15,08,07,5.50
2015,06,15,08,08,7.90
2015,06,15,08,09,6.80
2015,06,15,08,10,7.90
2015,06,15,08,11,8.20
2015,06,15,08,12,8.90
2015,06,15,08,13,11.20
2015,06,15,08,14,7.60
2015,06,15,08,15,8.80
2015,06,15,08,16,8.30
2015,06,15,08,17,8.30
2015,06,15,08,18,9.70
2015,06,15,08,19,9.50
2015,06,15,08,20,10.20
2015,06,15,08,21,10.50
2015,06,15,08,22,9.20
2015,06,15,08,23,7.80
2015,06,15,08,24,8.80
2015,06,15,08,25,8.20
2015,06,15,08,26,7.30
2015,06,15,08,27,6.80
2015,06,15,08,28,7.60
2015,06,15,08,29,7.00
2015,06,15,08,30,8.10
2015,06,15,08,31,10.90
2015,06,15,08,32,8.20
2015,06,15,08,33,11.00
2015,06,15,08,34,9.90
2015,06,15,08,35,11.10
2015,06,15,08,36,11.00
2015,06,15,08,37,10.50
2015,06,15,08,38,12.50
2015,06,15,08,39,10.30
2015,06,15,08,40,10.30
2015,06,15,08,41,11.40
2015,06,15,08,42,11.60
2015,06,15,08,43,7.10
2015,06,15,08,44,6.10
2015,06,15,08,45,11.10
2015,06,15,08,46,15.70
2015,06,15,08,47,10.20
2015,06,15,08,48,15.20
2015,06,15,08,49,11.50
2015,06,15,08,50,9.50
2015,06,15,08,51,8.50
2015,06,15,08,52,6.70
2015,06,15,08,53,5.70
2015,06,15,08,54,8.60
2015,06,15,08,55,8.30
2015,06,15,08,56,13.00
2015,06,15,08,57,9.20
2015,06,15,08,58,9.20
2015,06,15,08,59,14.70
2015,06,15,09,00,11.90
2015,06,15,09,01,14.10
2015,06,15,09,02,9.20
2015,06,15,09,03,11.40
2015,06,15,09,04,11.50
2015,06,15,09,05,10.40
2015,06,15,09,06,12.50
2015,06,15,09,07,9.50
2015,06,15,09,08,9.80
2015,06,15,09,09,10.90
2015,06,15,09,10,8.90
2015,06,15,09,11,7.90
2015,06,15,09,12,7.10
2015,06,15,09,13,7.70
2015,06,15,09,14,9.90
2015,06,15,09,15,6.70
2015,06,15,09,16,8.40
2015,06,15,09,17,11.90
2015,06,15,09,18,8.60
2015,06,15,09,19,11.00
2015,06,15,09,20,8.80
2015,06,15,09,21,6.20
2015,06,15,09,22,8.20
2015,06,15,09,23,13.50
2015,06,15,09,24,11.60
2015,06,15,09,25,13.70
2015,06,15,09,26,7.30
2015,06,15,09,27,11.50
2015,06,15,09,28,11.60
2015,06,15,09,29,10.00
2015,06,15,09,30,11.90
2015,06,15,09,31,14.00
2015,06,15,09,32,12.50
2015,06,15,09,33,13.60
2015,06,15,09,34,10.30
2015,06,15,09,35,7.90
2015,06,15,09,36,12.60
2015,06,15,09,37,6.30
2015,06,15,09,38,8.70
2015,06,15,09,39,11.70
2015,06,15,09,40,11.20
2015,06,15,09,41,9.90
2015,06,15,09,42,7.20
2015,06,15,09,43,6.10
2015,06,15,09,44,8.50
2015,06,15,09,45,10.80
2015,06,15,09,46,8.60
2015,06,15,09,47,12.00
2015,06,15,09,48,10.90
2015,06,15,09,49,11.90
2015,06,15,09,50,9.60
2015,06,15,09,51,7.60
2015,06,15,09,52,11.90
2015,06,15,09,53,11.40
2015,06,15,09,54,7.50
2015,06,15,09,55,11.50
2015,06,15,09,56,10.40
2015,06,15,09,57,9.40
2015,06,15,09,58,12.20
2015,06,15,09,59,8.80
2015,06,15,10,00,10.10
2015,06,15,10,01,10.80
2015,06,15,10,02,8.80
2015,06,15,10,03,10.10
2015,06,15,10,04,12.00
2015,06,15,10,05,6.70
2015,06,15,10,06,9.10
2015,06,15,10,07,10.90
2015,06,15,10,08,8.90
2015,06,15,10,09,10.30
2015,06,15,10,10,12.80
2015,06,15,10,11,14.10
2015,06,15,10,12,8.70
2015,06,15,10,13,6.90
2015,06,15,10,14,9.40
2015,06,15,10,15,10.30
2015,06,15,10,16,9.20
2015,06,15,10,17,10.60
2015,06,15,10,18,7.50
2015,06,15,10,19,7.80
2015,06,15,10,20,11.00
2015,06,15,10,21,8.70
2015,06,15,10,22,7.60
2015,06,15,10,23,6.00
2015,06,15,10,24,7.90
2015,06,15,10,25,6.90
2015,06,15,10,26,11.20
2015,06,15,10,27,8.10
2015,06,15,10,28,10.20
2015,06,15,10,29,7.10
2015,06,15,10,30,10.60
2015,06,15,10,31,8.80
2015,06,15,10,32,12.00
2015,06,15,10,33,10.80
2015,06,15,10,34,9.70
2015,06,15,10,35,9.40
2015,06,15,10,36,10.50
2015,06,15,10,37,9.20
2015,06,15,10,38,7.00
2015,06,15,10,39,9.20
2015,06,15,10,40,9.20
2015,06,15,10,41,6.90
2015,06,15,10,42,2.90
2015,06,15,10,43,6.90
2015,06,15,10,44,5.40
2015,06,15,10,45,4.10
2015,06,15,10,46,7.90
2015,06,15,10,47,9.20
2015,06,15,10,48,11.70
2015,06,15,10,49,7.70
2015,06,15,10,50,6.80
2015,06,15,10,51,6.70
2015,06,15,10,52,7.50
2015,06,15,10,53,8.00
2015,06,15,10,54,9.10
2015,06,15,10,55,6.80
2015,06,15,10,56,11.90
2015,06,15,10,57,12.00
2015,06,15,10,58,8.40
2015,06,15,10,59,7.20
2015,06,15,11,00,8.70
2015,06,15,11,01,7.80
2015,06,15,11,02,8.80
2015,06,15,11,03,7.20
2015,06,15,11,04,7.60
2015,06,15,11,05,8.60
2015,06,15,11,06,4.90
2015,06,15,11,07,7.50
2015,06,15,11,08,5.80
2015,06,15,11,09,9.30
2015,06,15,11,10,11.60
2015,06,15,11,11,9.00
2015,06,15,11,12,11.10
2015,06,15,11,13,10.50
2015,06,15,11,14,13.20
2015,06,15,11,15,10.70
2015,06,15,11,16,8.90
2015,06,15,11,17,8.30
2015,06,15,11,18,9.50
2015,06,15,11,19,11.30
2015,06,15,11,20,9.50
2015,06,15,11,21,13.00
2015,06,15,11,22,9.40
2015,06,15,11,23,11.90
2015,06,15,11,24,11.60
2015,06,15,11,25,11.10
2015,06,15,11,26,13.10
2015,06,15,11,27,13.40
2015,06,15,11,28,12.60
2015,06,15,11,29,10.30
2015,06,15,11,30,9.30
2015,06,15,11,31,11.30
2015,06,15,11,32,13.40
2015,06,15,11,33,10.90
2015,06,15,11,34,12.10
2015,06,15,11,35,9.10
2015,06,15,11,36,11.40
2015,06,15,11,37,9.40
2015,06,15,11,38,6.30
2015,06,15,11,39,10.20
2015,06,15,11,40,10.90
2015,06,15,11,41,12.00
2015,06,15,11,42,13.20
2015,06,15,11,43,8.70
2015,06,15,11,44,10.70
2015,06,15,11,45,8.30
2015,06,15,11,46,8.80
2015,06,15,11,47,8.10
2015,06,15,11,48,8.60
2015,06,15,11,49,10.10
2015,06,15,11,50,8.00
2015,06,15,11,51,10.50
2015,06,15,11,52,10.60
2015,06,15,11,53,9.10
2015,06,15,11,54,9.20
2015,06,15,11,55,6.30
2015,06,15,11,56,7.20
2015,06,15,11,57,6.70
2015,06,15,11,58,7.30
2015,06,15,11,59,9.70
2015,06,15,12,00,8.90
2015,06,15,12,01,7.60
2015,06,15,12,02,9.80
2015,06,15,12,03,10.50
2015,06,15,12,04,8.50
2015,06,15,12,05,11.80
2015,06,15,12,06,11.20
2015,06,15,12,07,13.20
2015,06,15,12,08,11.60
2015,06,15,12,09,10.20
2015,06,15,12,10,12.40
2015,06,15,12,11,13.30
2015,06,15,12,12,8.30
2015,06,15,12,13,10.20
2015,06,15,12,14,9.20
2015,06,15,12,15,7.90
2015,06,15,12,16,8.10
2015,06,15,12,17,7.70
2015,06,15,12,18,6.10
2015,06,15,12,19,7.40
2015,06,15,12,20,7.00
2015,06,15,12,21,7.70
2015,06,15,12,22,7.80
2015,06,15,12,23,6.70
2015,06,15,12,24,6.90
2015,06,15,12,25,6.60
2015,06,15,12,26,7.50
2015,06,15,12,27,8.60
2015,06,15,12,28,5.00
2015,06,15,12,29,8.00
2015,06,15,12,30,8.80
2015,06,15,12,31,6.90
2015,06,15,12,32,6.40
2015,06,15,12,33,6.90
2015,06,15,12,34,6.60
2015,06,15,12,35,8.50
2015,06,15,12,36,7.00
2015,06,15,12,37,6.40
2015,06,15,12,38,7.10
2015,06,15,12,39,6.80
2015,06,15,12,40,7.00
2015,06,15,12,41,5.50
2015,06,15,12,42,4.90
2015,06,15,12,43,8.00
2015,06,15,12,44,8.40
2015,06,15,12,45,5.80
2015,06,15,12,46,5.50
2015,06,15,12,47,4.50
2015,06,15,12,48,4.00
2015,06,15,12,49,5.80
2015,06,15,12,50,5.30
2015,06,15,12,51,3.30
2015,06,15,12,52,5.40
2015,06,15,12,53,3.50
2015,06,15,12,54,4.70
2015,06,15,12,55,4.10
2015,06,15,12,56,4.40
2015,06,15,12,57,6.10
2015,06,15,12,58,2.90
2015,06,15,12,59,4.00
2015,06,15,13,00,7.70
2015,06,15,13,01,7.00
2015,06,15,13,02,6.60
2015,06,15,13,03,5.10
2015,06,15,13,04,4.90
2015,06,15,13,05,6.30
2015,06,15,13,06,5.50
2015,06,15,13,07,5.70
2015,06,15,13,08,5.20
2015,06,15,13,09,3.40
2015,06,15,13,10,4.50
2015,06,15,13,11,5.40
2015,06,15,13,12,7.20
2015,06,15,13,13,5.80
2015,06,15,13,14,6.80
2015,06,15,13,15,3.50
2015,06,15,13,16,3.30
2015,06,15,13,17,4.60
2015,06,15,13,18,7.30
2015,06,15,13,19,4.10
2015,06,15,13,20,5.60
2015,06,15,13,21,4.80
2015,06,15,13,22,6.40
2015,06,15,13,23,7.00
2015,06,15,13,24,4.50
2015,06,15,13,25,9.20
2015,06,15,13,26,8.60
2015,06,15,13,27,8.50
2015,06,15,13,28,7.20
2015,06,15,13,29,5.50
2015,06,15,13,30,4.70
2015,06,15,13,31,5.70
2015,06,15,13,32,6.20
2015,06,15,13,33,6.20
2015,06,15,13,34,8.20
2015,06,15,13,35,7.60
2015,06,15,13,36,6.80
2015,06,15,13,37,6.30
2015,06,15,13,38,4.50
2015,06,15,13,39,6.90
2015,06,15,13,40,6.50
2015,06,15,13,41,5.10
2015,06,15,13,42,6.30
2015,06,15,13,43,6.00
2015,06,15,13,44,5.10
2015,06,15,13,45,5.70
2015,06,15,13,46,6.80
2015,06,15,13,47,3.80
2015,06,15,13,48,4.90
2015,06,15,13,49,5.10
2015,06,15,13,50,6.50
2015,06,15,13,51,9.80
2015,06,15,13,52,6.80
2015,06,15,13,53,7.80
2015,06,15,13,54,6.50
2015,06,15,13,55,6.90
2015,06,15,13,56,6.50
2015,06,15,13,57,6.90
2015,06,15,13,58,6.70
2015,06,15,13,59,8.10
2015,06,15,14,00,6.70
2015,06,15,14,01,4.70
2015,06,15,14,02,6.00
2015,06,15,14,03,5.70
2015,06,15,14,04,6.30
2015,06,15,14,05,4.50
2015,06,15,14,06,6.10
2015,06,15,14,07,6.40
2015,06,15,14,08,6.50
2015,06,15,14,09,4.50
2015,06,15,14,10,5.50
2015,06,15,14,11,7.60
2015,06,15,14,12,6.10
2015,06,15,14,13,5.60
2015,06,15,14,14,5.20
2015,06,15,14,15,5.10
2015,06,15,14,16,4.00
2015,06,15,14,17,4.50
2015,06,15,14,18,6.80
2015,06,15,14,19,6.70
2015,06,15,14,20,6.60
2015,06,15,14,21,8.60
2015,06,15,14,22,8.20
2015,06,15,14,23,9.40
2015,06,15,14,24,8.70
2015,06,15,14,25,10.00
2015,06,15,14,26,8.90
2015,06,15,14,27,7.50
2015,06,15,14,28,8.90
2015,06,15,14,29,8.80
2015,06,15,14,30,7.20
2015,06,15,14,31,6.90
2015,06,15,14,32,7.30
2015,06,15,14,33,7.20
2015,06,15,14,34,6.10
2015,06,15,14,35,6.20
2015,06,15,14,36,6.10
2015,06,15,14,37,5.80
2015,06,15,14,38,6.10
2015,06,15,14,39,6.30
2015,06,15,14,40,3.80
2015,06,15,14,41,6.90
2015,06,15,14,42,7.60
2015,06,15,14,43,10.90
2015,06,15,14,44,8.50
2015,06,15,14,45,7.80
2015,06,15,14,46,7.40
2015,06,15,14,47,5.50
2015,06,15,14,48,5.10
2015,06,15,14,49,6.60
2015,06,15,14,50,8.60
2015,06,15,14,51,7.00
2015,06,15,14,52,8.90
2015,06,15,14,53,8.20
2015,06,15,14,54,8.10
2015,06,15,14,55,8.90
2015,06,15,14,56,7.80
2015,06,15,14,57,4.90
2015,06,15,14,58,3.60
2015,06,15,14,59,6.10
2015,06,15,15,00,4.60
2015,06,15,15,01,6.90
2015,06,15,15,02,7.00
2015,06,15,15,03,4.20
2015,06,15,15,04,4.60
2015,06,15,15,05,6.30
2015,06,15,15,06,5.40
2015,06,15,15,07,4.50
2015,06,15,15,08,4.80
2015,06,15,15,09,4.90
2015,06,15,15,10,8.70
2015,06,15,15,11,6.60
2015,06,15,15,12,7.70
2015,06,15,15,13,6.70
2015,06,15,15,14,5.50
2015,06,15,15,15,4.40
2015,06,15,15,16,5.10
2015,06,15,15,17,7.10
2015,06,15,15,18,8.40
2015,06,15,15,19,7.10
2015,06,15,15,20,6.40
2015,06,15,15,21,4.50
2015,06,15,15,22,4.90
2015,06,15,15,23,5.00
2015,06,15,15,24,3.50
2015,06,15,15,25,5.50
2015,06,15,15,26,6.40
2015,06,15,15,27,6.80
2015,06,15,15,28,4.60
2015,06,15,15,29,3.70
2015,06,15,15,30,5.90
2015,06,15,15,31,5.70
2015,06,15,15,32,8.50
2015,06,15,15,33,7.00
2015,06,15,15,34,5.90
2015,06,15,15,35,6.00
2015,06,15,15,36,6.30
2015,06,15,15,37,5.00
2015,06,15,15,38,3.60
2015,06,15,15,39,7.50
2015,06,15,15,40,9.30
2015,06,15,15,41,8.10
2015,06,15,15,42,6.60
2015,06,15,15,43,6.40
2015,06,15,15,44,6.60
2015,06,15,15,45,8.90
2015,06,15,15,46,4.50
2015,06,15,15,47,6.40
2015,06,15,15,48,7.00
2015,06,15,15,49,5.20
2015,06,15,15,50,7.00
2015,06,15,15,51,6.90
2015,06,15,15,52,5.50
2015,06,15,15,53,4.60
2015,06,15,15,54,7.50
2015,06,15,15,55,7.80
2015,06,15,15,56,10.10
2015,06,15,15,57,8.20
2015,06,15,15,58,10.60
2015,06,15,15,59,7.70
2015,06,15,16,00,4.40
2015,06,15,16,01,8.20
2015,06,15,16,02,5.60
2015,06,15,16,03,11.70
2015,06,15,16,04,9.40
2015,06,15,16,05,9.40
2015,06,15,16,06,8.40
2015,06,15,16,07,7.00
2015,06,15,16,08,8.10
2015,06,15,16,09,6.00
2015,06,15,16,10,4.50
2015,06,15,16,11,6.40
2015,06,15,16,12,5.70
2015,06,15,16,13,8.80
2015,06,15,16,14,5.00
2015,06,15,16,15,7.20
2015,06,15,16,16,6.30
2015,06,15,16,17,5.80
2015,06,15,16,18,7.60
2015,06,15,16,19,5.50
2015,06,15,16,20,5.30
2015,06,15,16,21,6.00
2015,06,15,16,22,5.60
2015,06,15,16,23,8.90
2015,06,15,16,24,7.90
2015,06,15,16,25,5.40
2015,06,15,16,26,9.00
2015,06,15,16,27,4.70
2015,06,15,16,28,8.00
2015,06,15,16,29,5.80
2015,06,15,16,30,4.20
2015,06,15,16,31,7.40
2015,06,15,16,32,5.00
2015,06,15,16,33,4.40
2015,06,15,16,34,5.40
2015,06,15,16,35,6.30
2015,06,15,16,36,8.20
2015,06,15,16,37,9.80
2015,06,15,16,38,7.30
2015,06,15,16,39,7.90
2015,06,15,16,40,7.20
2015,06,15,16,41,7.00
2015,06,15,16,42,4.80
2015,06,15,16,43,6.50
2015,06,15,16,44,7.90
2015,06,15,16,45,3.20
2015,06,15,16,46,6.00
2015,06,15,16,47,4.80
2015,06,15,16,48,9.40
2015,06,15,16,49,6.60
2015,06,15,16,50,6.80
2015,06,15,16,51,6.90
2015,06,15,16,52,4.30
2015,06,15,16,53,5.20
2015,06,15,16,54,6.70
2015,06,15,16,55,3.50
2015,06,15,16,56,4.20
2015,06,15,16,57,6.20
2015,06,15,16,58,4.00
2015,06,15,16,59,5.20
2015,06,15,17,00,3.60
2015,06,15,17,01,5.10
2015,06,15,17,02,6.40
2015,06,15,17,03,4.80
2015,06,15,17,04,5.10
2015,06,15,17,05,7.10
2015,06,15,17,06,7.10
2015,06,15,17,07,4.50
2015,06,15,17,08,3.70
2015,06,15,17,09,2.10
2015,06,15,17,10,5.50
2015,06,15,17,11,6.60
2015,06,15,17,12,7.60
2015,06,15,17,13,6.30
2015,06,15,17,14,7.30
2015,06,15,17,15,6.00
2015,06,15,17,16,7.10
2015,06,15,17,17,6.40
2015,06,15,17,18,8.10
2015,06,15,17,19,7.20
2015,06,15,17,20,8.40
2015,06,15,17,21,7.30
2015,06,15,17,22,6.20
2015,06,15,17,23,4.50
2015,06,15,17,24,6.90
2015,06,15,17,25,6.80
2015,06,15,17,26,6.20
2015,06,15,17,27,7.80
2015,06,15,17,28,6.60
2015,06,15,17,29,6.30
2015,06,15,17,30,2.90
2015,06,15,17,31,4.30
2015,06,15,17,32,4.10
2015,06,15,17,33,3.60
2015,06,15,17,34,5.50
2015,06,15,17,35,8.10
2015,06,15,17,36,6.50
2015,06,15,17,37,6.10
2015,06,15,17,38,6.50
2015,06,15,17,39,7.50
2015,06,15,17,40,5.80
2015,06,15,17,41,7.70
2015,06,15,17,42,6.90
2015,06,15,17,43,6.30
2015,06,15,17,44,4.90
2015,06,15,17,45,4.50
2015,06,15,17,46,3.90
2015,06,15,17,47,3.20
2015,06,15,17,48,7.20
2015,06,15,17,49,4.40
2015,06,15,17,50,2.70
2015,06,15,17,51,6.10
2015,06,15,17,52,4.40
2015,06,15,17,53,5.70
2015,06,15,17,54,6.90
2015,06,15,17,55,7.30